FLI435 ENBR-EKVG

Flight info

Callsign FLI435
Flight time 1h 9m
Altitude 38000
Route REKLI DCT VALDI/M079F380 DCT ROBUR
Aircraft A20N/M-SDE2E3FGHIRWXY/LB1

Departure

Time 2026-05-07 17:07
Airport Bergen Airport, Flesland (ENBR)

Arrival

Time 2026-05-07 18:17
Airport Vágar Airport (EKVG)
Time Latitude Longitude Altitude Speed Heading
2026-05-07 16:51 60.28932 5.22538 154 ft 0 kts 116°
2026-05-07 17:00 60.28935 5.22527 154 ft 4 kts 110°
2026-05-07 17:01 60.28941 5.22487 154 ft 4 kts 110°
2026-05-07 17:01 60.28952 5.22437 154 ft 4 kts 122°
2026-05-07 17:01 60.28969 5.22396 154 ft 4 kts 144°
2026-05-07 17:01 60.28988 5.22377 154 ft 1 kts 172°
2026-05-07 17:02 60.28992 5.22376 154 ft 0 kts 172°
2026-05-07 17:03 60.28991 5.22376 154 ft 0 kts 172°
2026-05-07 17:04 60.28975 5.22380 154 ft 5 kts 171°
2026-05-07 17:04 60.28921 5.22397 154 ft 11 kts 171°
2026-05-07 17:04 60.28833 5.22431 153 ft 15 kts 171°
2026-05-07 17:04 60.28719 5.22440 152 ft 18 kts 210°
2026-05-07 17:05 60.28596 5.22388 153 ft 19 kts 171°
2026-05-07 17:05 60.28451 5.22438 150 ft 24 kts 170°
2026-05-07 17:05 60.28334 5.22475 149 ft 26 kts 173°
2026-05-07 17:05 60.28153 5.22543 147 ft 26 kts 156°
2026-05-07 17:06 60.28068 5.22505 146 ft 10 kts 242°
2026-05-07 17:06 60.28057 5.22295 143 ft 23 kts 292°
2026-05-07 17:06 60.28188 5.22195 146 ft 48 kts 351°
2026-05-07 17:06 60.28766 5.22008 153 ft 121 kts 350°
2026-05-07 17:07 60.29828 5.21651 165 ft 183 kts 349°
2026-05-07 17:07 60.31013 5.21232 1259 ft 138 kts 347°
2026-05-07 17:07 60.32024 5.20839 1917 ft 170 kts 351°
2026-05-07 17:07 60.33278 5.20438 2151 ft 199 kts 352°
2026-05-07 17:08 60.34770 5.19977 2442 ft 232 kts 352°
2026-05-07 17:08 60.36443 5.19442 2915 ft 252 kts 352°
2026-05-07 17:08 60.38214 5.18861 3610 ft 263 kts 351°
2026-05-07 17:08 60.40048 5.18251 4343 ft 271 kts 351°
2026-05-07 17:09 60.41928 5.17622 5120 ft 277 kts 351°
2026-05-07 17:09 60.43852 5.16969 5945 ft 282 kts 350°
2026-05-07 17:09 60.45761 5.16172 6774 ft 285 kts 341°
2026-05-07 17:09 60.47467 5.14186 7607 ft 284 kts 313°
2026-05-07 17:10 60.48492 5.10883 8519 ft 276 kts 283°
2026-05-07 17:10 60.48659 5.07084 9484 ft 269 kts 261°
2026-05-07 17:10 60.48235 5.03421 10385 ft 266 kts 244°
2026-05-07 17:10 60.47217 5.00335 11230 ft 265 kts 224°
2026-05-07 17:11 60.45679 4.98231 11936 ft 276 kts 204°
2026-05-07 17:11 60.43722 4.97485 12289 ft 302 kts 183°
2026-05-07 17:11 60.41542 4.97803 12645 ft 325 kts 178°
2026-05-07 17:11 60.39232 4.98352 13090 ft 342 kts 177°
2026-05-07 17:12 60.36839 4.98922 13763 ft 350 kts 178°
2026-05-07 17:12 60.34386 4.99337 14404 ft 355 kts 184°
2026-05-07 17:12 60.31950 4.98629 15087 ft 353 kts 201°
2026-05-07 17:12 60.29781 4.96412 15808 ft 350 kts 219°
2026-05-07 17:13 60.28112 4.92953 16511 ft 350 kts 237°
2026-05-07 17:13 60.27071 4.88529 17211 ft 352 kts 254°
2026-05-07 17:13 60.26639 4.83646 17903 ft 356 kts 262°
2026-05-07 17:13 60.26380 4.78653 18561 ft 360 kts 264°
2026-05-07 17:14 60.26211 4.73594 19186 ft 363 kts 269°
2026-05-07 17:14 60.26406 4.68517 19863 ft 366 kts 278°
2026-05-07 17:14 60.27089 4.63562 20514 ft 370 kts 289°
2026-05-07 17:14 60.28192 4.58853 21179 ft 374 kts 294°
2026-05-07 17:15 60.29427 4.54222 21817 ft 375 kts 295°
2026-05-07 17:15 60.30679 4.49588 22440 ft 377 kts 295°
2026-05-07 17:15 60.31929 4.44932 23048 ft 378 kts 295°
2026-05-07 17:15 60.33180 4.40239 23643 ft 380 kts 295°
2026-05-07 17:16 60.34412 4.35595 24094 ft 382 kts 295°
2026-05-07 17:16 60.35669 4.30840 24539 ft 384 kts 294°
2026-05-07 17:16 60.36927 4.26063 24972 ft 386 kts 294°
2026-05-07 17:16 60.38186 4.21271 25418 ft 388 kts 294°
2026-05-07 17:17 60.39451 4.16445 25842 ft 389 kts 294°
2026-05-07 17:17 60.40719 4.11599 26331 ft 390 kts 294°
2026-05-07 17:17 60.41987 4.06739 26804 ft 390 kts 294°
2026-05-07 17:17 60.43257 4.01863 27206 ft 392 kts 293°
2026-05-07 17:18 60.44533 3.96947 27562 ft 395 kts 293°
2026-05-07 17:18 60.45799 3.92006 27932 ft 396 kts 292°
2026-05-07 17:18 60.46981 3.86941 28327 ft 397 kts 290°
2026-05-07 17:18 60.48089 3.81825 28768 ft 396 kts 289°
2026-05-07 17:19 60.49157 3.76708 29312 ft 393 kts 289°
2026-05-07 17:19 60.50206 3.71614 29878 ft 390 kts 288°
2026-05-07 17:19 60.51248 3.66552 30360 ft 388 kts 288°
2026-05-07 17:19 60.52276 3.61576 30742 ft 387 kts 288°
2026-05-07 17:20 60.53317 3.56548 31091 ft 386 kts 288°
2026-05-07 17:20 60.54358 3.51533 31431 ft 386 kts 288°
2026-05-07 17:20 60.55396 3.46539 31775 ft 385 kts 288°
2026-05-07 17:20 60.56436 3.41529 32118 ft 384 kts 288°
2026-05-07 17:21 60.57476 3.36512 32452 ft 384 kts 288°
2026-05-07 17:21 60.58508 3.31514 32724 ft 385 kts 288°
2026-05-07 17:21 60.59545 3.26480 33021 ft 384 kts 288°
2026-05-07 17:21 60.60573 3.21480 33344 ft 383 kts 287°
2026-05-07 17:22 60.61602 3.16463 33662 ft 382 kts 287°
2026-05-07 17:22 60.62624 3.11465 33959 ft 382 kts 287°
2026-05-07 17:22 60.63645 3.06462 34214 ft 382 kts 287°
2026-05-07 17:22 60.64663 3.01456 34394 ft 383 kts 287°
2026-05-07 17:23 60.65682 2.96429 34527 ft 385 kts 287°
2026-05-07 17:23 60.66704 2.91374 34689 ft 386 kts 287°
2026-05-07 17:23 60.67729 2.86296 34845 ft 387 kts 287°
2026-05-07 17:23 60.68754 2.81205 35005 ft 388 kts 287°
2026-05-07 17:24 60.69781 2.76095 35152 ft 390 kts 287°
2026-05-07 17:24 60.70810 2.70965 35325 ft 391 kts 287°
2026-05-07 17:24 60.72874 2.60623 35587 ft 395 kts 287°
2026-05-07 17:25 60.73909 2.55428 35824 ft 393 kts 287°
2026-05-07 17:25 60.74925 2.50313 35980 ft 394 kts 287°
2026-05-07 17:25 60.75952 2.45121 36090 ft 396 kts 287°
2026-05-07 17:25 60.76985 2.39888 36218 ft 397 kts 287°
2026-05-07 17:26 60.78019 2.34634 36349 ft 398 kts 287°
2026-05-07 17:26 60.79053 2.29367 36477 ft 399 kts 287°
2026-05-07 17:26 60.80086 2.24092 36602 ft 400 kts 287°
2026-05-07 17:26 60.81118 2.18808 36731 ft 401 kts 287°
2026-05-07 17:27 60.82159 2.13465 36849 ft 402 kts 288°
2026-05-07 17:27 60.83193 2.08145 36957 ft 402 kts 288°
2026-05-07 17:27 60.84224 2.02821 37085 ft 404 kts 287°
2026-05-07 17:27 60.85265 1.97435 37157 ft 406 kts 287°
2026-05-07 17:28 60.86305 1.92036 37302 ft 407 kts 288°
2026-05-07 17:28 60.87342 1.86644 37423 ft 407 kts 288°
2026-05-07 17:28 60.88381 1.81222 37536 ft 408 kts 288°
2026-05-07 17:28 60.89419 1.75792 37639 ft 409 kts 288°
2026-05-07 17:29 60.90440 1.70435 37743 ft 409 kts 288°
2026-05-07 17:29 60.91481 1.64963 37856 ft 410 kts 288°
2026-05-07 17:29 60.93553 1.54014 37999 ft 412 kts 288°
2026-05-07 17:30 60.95638 1.42937 38039 ft 417 kts 288°
2026-05-07 17:30 60.97739 1.31707 38028 ft 424 kts 288°
2026-05-07 17:31 60.99863 1.20300 38025 ft 429 kts 287°
2026-05-07 17:31 61.01993 1.08797 38012 ft 429 kts 287°
2026-05-07 17:32 61.04114 0.97274 38045 ft 429 kts 287°
2026-05-07 17:32 61.05863 0.87713 38012 ft 429 kts 287°
2026-05-07 17:33 61.08318 0.74209 38001 ft 429 kts 287°
2026-05-07 17:33 61.10408 0.62634 38005 ft 430 kts 287°
2026-05-07 17:34 61.12489 0.51035 37985 ft 431 kts 287°
2026-05-07 17:34 61.14560 0.39431 37988 ft 431 kts 287°
2026-05-07 17:35 61.16631 0.27756 37985 ft 431 kts 287°
2026-05-07 17:35 61.18688 0.16083 37980 ft 431 kts 287°
2026-05-07 17:36 61.20739 0.04378 37979 ft 431 kts 287°
2026-05-07 17:36 61.22569 -0.07443 37961 ft 430 kts 282°
2026-05-07 17:37 61.24069 -0.19378 37962 ft 430 kts 281°
2026-05-07 17:37 61.25534 -0.31438 37966 ft 430 kts 281°
2026-05-07 17:38 61.27022 -0.43488 37961 ft 431 kts 281°
2026-05-07 17:38 61.28522 -0.55544 37967 ft 431 kts 281°
2026-05-07 17:39 61.30018 -0.67615 37945 ft 431 kts 281°
2026-05-07 17:39 61.31500 -0.79681 37948 ft 431 kts 281°
2026-05-07 17:40 61.32973 -0.91785 37937 ft 431 kts 281°
2026-05-07 17:40 61.34432 -1.03869 37937 ft 431 kts 281°
2026-05-07 17:41 61.35882 -1.15988 37923 ft 431 kts 281°
2026-05-07 17:41 61.37312 -1.28039 37919 ft 431 kts 281°
2026-05-07 17:42 61.38740 -1.40171 37921 ft 431 kts 281°
2026-05-07 17:42 61.40160 -1.52343 37909 ft 433 kts 281°
2026-05-07 17:43 61.41575 -1.64579 37904 ft 434 kts 281°
2026-05-07 17:43 61.42984 -1.76855 37895 ft 434 kts 280°
2026-05-07 17:44 61.44381 -1.89138 37897 ft 434 kts 280°
2026-05-07 17:44 61.45765 -2.01422 37880 ft 434 kts 280°
2026-05-07 17:45 61.47130 -2.13647 37895 ft 434 kts 280°
2026-05-07 17:45 61.48496 -2.25998 37866 ft 437 kts 280°
2026-05-07 17:46 61.49858 -2.38411 37865 ft 437 kts 280°
2026-05-07 17:46 61.51208 -2.50832 37865 ft 437 kts 280°
2026-05-07 17:47 61.52547 -2.63261 37850 ft 437 kts 279°
2026-05-07 17:47 61.53866 -2.75621 37852 ft 437 kts 279°
2026-05-07 17:48 61.55182 -2.88081 37839 ft 438 kts 279°
2026-05-07 17:48 61.56493 -3.00612 37839 ft 441 kts 279°
2026-05-07 17:49 61.57800 -3.13216 37826 ft 442 kts 279°
2026-05-07 17:49 61.59096 -3.25826 37829 ft 442 kts 279°
2026-05-07 17:50 61.60377 -3.38425 37827 ft 441 kts 279°
2026-05-07 17:50 61.61647 -3.51037 37806 ft 439 kts 279°
2026-05-07 17:51 61.62885 -3.63433 37811 ft 429 kts 279°
2026-05-07 17:51 61.64091 -3.75671 37807 ft 427 kts 279°
2026-05-07 17:52 61.65279 -3.87846 37802 ft 427 kts 278°
2026-05-07 17:52 61.66462 -4.00088 37788 ft 427 kts 278°
2026-05-07 17:53 61.67636 -4.12347 37783 ft 427 kts 278°
2026-05-07 17:53 61.68800 -4.24619 37794 ft 427 kts 278°
2026-05-07 17:54 61.69758 -4.34822 37768 ft 428 kts 278°
2026-05-07 17:54 61.70906 -4.47152 37769 ft 428 kts 278°
2026-05-07 17:55 61.72041 -4.59479 37766 ft 428 kts 278°
2026-05-07 17:55 61.73159 -4.71740 37763 ft 428 kts 278°
2026-05-07 17:56 61.74272 -4.84080 37741 ft 428 kts 278°
2026-05-07 17:56 61.74824 -4.90255 37468 ft 427 kts 277°
2026-05-07 17:56 61.75375 -4.96448 36592 ft 433 kts 277°
2026-05-07 17:57 61.75936 -5.02813 35469 ft 446 kts 276°
2026-05-07 17:57 61.76505 -5.09224 35040 ft 442 kts 276°
2026-05-07 17:57 61.77088 -5.15554 34663 ft 437 kts 276°
2026-05-07 17:57 61.77691 -5.21881 33970 ft 438 kts 275°
2026-05-07 17:58 61.78301 -5.28074 33986 ft 423 kts 276°
2026-05-07 17:58 61.78918 -5.34083 33930 ft 413 kts 276°
2026-05-07 17:58 61.80191 -5.45911 33804 ft 413 kts 276°
2026-05-07 17:59 61.81411 -5.57771 33129 ft 412 kts 273°
2026-05-07 17:59 61.81828 -5.63730 32137 ft 418 kts 271°
2026-05-07 17:59 61.82208 -5.69870 31304 ft 422 kts 271°
2026-05-07 18:00 61.82600 -5.76044 30504 ft 426 kts 271°
2026-05-07 18:00 61.83024 -5.82307 29616 ft 432 kts 271°
2026-05-07 18:00 61.83478 -5.88593 28741 ft 433 kts 271°
2026-05-07 18:00 61.83953 -5.94916 27833 ft 436 kts 272°
2026-05-07 18:01 61.84440 -6.01259 26887 ft 439 kts 272°
2026-05-07 18:01 61.84932 -6.07658 26023 ft 441 kts 272°
2026-05-07 18:01 61.85426 -6.14070 25353 ft 438 kts 272°
2026-05-07 18:01 61.85914 -6.20427 24704 ft 435 kts 272°
2026-05-07 18:02 61.86864 -6.32989 23456 ft 429 kts 272°
2026-05-07 18:02 61.87327 -6.39211 22770 ft 426 kts 272°
2026-05-07 18:02 61.87781 -6.45379 22081 ft 423 kts 272°
2026-05-07 18:03 61.88232 -6.51557 21256 ft 423 kts 272°
2026-05-07 18:03 61.88922 -6.57641 20565 ft 429 kts 283°
2026-05-07 18:03 61.90011 -6.63437 19908 ft 429 kts 287°
2026-05-07 18:03 61.91210 -6.69229 19253 ft 427 kts 289°
2026-05-07 18:04 61.92425 -6.74956 18598 ft 425 kts 289°
2026-05-07 18:04 61.93642 -6.80651 17960 ft 422 kts 290°
2026-05-07 18:04 61.94855 -6.86316 17276 ft 419 kts 290°
2026-05-07 18:04 61.96058 -6.91941 16568 ft 416 kts 290°
2026-05-07 18:05 61.97248 -6.97511 15904 ft 412 kts 290°
2026-05-07 18:05 61.98426 -7.03041 15248 ft 409 kts 291°
2026-05-07 18:05 61.99593 -7.08535 14636 ft 406 kts 291°
2026-05-07 18:05 62.00750 -7.13992 14008 ft 403 kts 291°
2026-05-07 18:06 62.01899 -7.19429 13371 ft 400 kts 291°
2026-05-07 18:06 62.03036 -7.24822 12713 ft 398 kts 291°
2026-05-07 18:06 62.04150 -7.30117 12163 ft 393 kts 291°
2026-05-07 18:06 62.05248 -7.35345 11928 ft 380 kts 291°
2026-05-07 18:07 62.06308 -7.40404 11733 ft 367 kts 291°
2026-05-07 18:07 62.07328 -7.45282 11525 ft 354 kts 291°
2026-05-07 18:07 62.08308 -7.49970 11254 ft 337 kts 291°
2026-05-07 18:07 62.09238 -7.54434 10975 ft 321 kts 291°
2026-05-07 18:08 62.10121 -7.58694 10700 ft 309 kts 291°
2026-05-07 18:08 62.10982 -7.62858 10219 ft 305 kts 291°
2026-05-07 18:08 62.11944 -7.66902 9632 ft 307 kts 303°
2026-05-07 18:08 62.13507 -7.69951 9024 ft 308 kts 333°
2026-05-07 18:09 62.15556 -7.70999 8434 ft 303 kts
2026-05-07 18:09 62.17534 -7.69838 7857 ft 293 kts 34°
2026-05-07 18:09 62.18984 -7.66938 7302 ft 282 kts 62°
2026-05-07 18:09 62.19652 -7.63115 6737 ft 272 kts 87°
2026-05-07 18:10 62.19490 -7.59189 6221 ft 262 kts 111°
2026-05-07 18:10 62.18601 -7.55851 5719 ft 256 kts 134°
2026-05-07 18:10 62.17175 -7.53614 5289 ft 255 kts 156°
2026-05-07 18:10 62.15473 -7.52793 4875 ft 257 kts 178°
2026-05-07 18:11 62.13710 -7.53538 4400 ft 264 kts 201°
2026-05-07 18:11 62.12643 -7.54927 4109 ft 268 kts 215°
2026-05-07 18:11 62.10828 -7.58322 3876 ft 254 kts 217°
2026-05-07 18:11 62.09405 -7.60261 3756 ft 232 kts 198°
2026-05-07 18:12 62.07897 -7.60883 3572 ft 213 kts 175°
2026-05-07 18:12 62.06510 -7.60302 3342 ft 197 kts 155°
2026-05-07 18:12 62.05399 -7.58851 3176 ft 180 kts 137°
2026-05-07 18:12 62.04624 -7.56895 3031 ft 167 kts 121°
2026-05-07 18:13 62.04182 -7.54714 2875 ft 155 kts 107°
2026-05-07 18:13 62.04043 -7.52526 2709 ft 146 kts 93°
2026-05-07 18:13 62.04164 -7.50431 2666 ft 141 kts 81°
2026-05-07 18:13 62.04518 -7.48441 2572 ft 146 kts 67°
2026-05-07 18:14 62.05102 -7.46641 2441 ft 149 kts 57°
2026-05-07 18:14 62.05774 -7.44963 2244 ft 149 kts 56°
2026-05-07 18:14 62.06455 -7.43304 2029 ft 149 kts 54°
2026-05-07 18:14 62.07137 -7.41636 2003 ft 149 kts 55°
2026-05-07 18:15 62.07776 -7.39955 2005 ft 145 kts 64°
2026-05-07 18:15 62.08042 -7.37962 1994 ft 139 kts 92°
2026-05-07 18:15 62.08006 -7.35886 1755 ft 140 kts 103°
2026-05-07 18:15 62.07763 -7.33884 1325 ft 140 kts 110°
2026-05-07 18:16 62.07415 -7.31956 903 ft 140 kts 113°
2026-05-07 18:16 62.06950 -7.30116 480 ft 142 kts 120°
2026-05-07 18:16 62.06485 -7.28257 312 ft 135 kts 117°
2026-05-07 18:16 62.06100 -7.26700 284 ft 81 kts 118°
2026-05-07 18:17 62.05981 -7.26218 275 ft 16 kts 118°
2026-05-07 18:17 62.05946 -7.26037 273 ft 5 kts 109°
2026-05-07 18:17 62.05935 -7.26030 274 ft 7 kts 166°
2026-05-07 18:17 62.05931 -7.26029 274 ft 0 kts 173°
2026-05-07 18:18 62.05928 -7.26042 275 ft 2 kts 257°
2026-05-07 18:18 62.05945 -7.26104 273 ft 5 kts 301°
2026-05-07 18:18 62.05966 -7.26184 274 ft 9 kts 298°
2026-05-07 18:18 62.06027 -7.26407 278 ft 25 kts 288°
2026-05-07 18:19 62.06124 -7.26783 288 ft 36 kts 295°
2026-05-07 18:19 62.06259 -7.27318 291 ft 43 kts 296°
2026-05-07 18:19 62.06390 -7.27863 297 ft 39 kts 296°
2026-05-07 18:19 62.06468 -7.28101 298 ft 9 kts 335°
2026-05-07 18:20 62.06529 -7.28094 299 ft 9 kts
2026-05-07 18:20 62.06585 -7.28073 295 ft 7 kts
2026-05-07 18:20 62.06621 -7.28060 300 ft 3 kts
2026-05-07 18:20 62.06656 -7.28074 299 ft 8 kts 355°
2026-05-07 18:21 62.06693 -7.28039 300 ft 1 kts 43°
2026-05-07 18:21 62.06694 -7.28036 300 ft 0 kts 49°
2026-05-07 18:21 62.06700 -7.28017 300 ft 0 kts 58°
2026-05-07 18:21 62.06701 -7.28012 300 ft 2 kts 55°
2026-05-07 18:22 62.06702 -7.28007 300 ft 1 kts 62°
2026-05-07 18:22 62.06704 -7.28002 299 ft 0 kts 62°